Regional Weather Roundup
Issued by NWS

Home | Current Version | Previous Version | Text Only | Print | Product List | Glossary Off
Versions: 1 2 3 4 5 6 7 8 9 10 11 12 13 14 15 16 17 18 19 20 21 22 23 24 25 26 27 28 29 30 31 32 33 34 35 36 37 38 39 40 41 42 43 44 45 46 47 48 49 50

594
ASUS43 KOAX 251403
RWRNE

WEATHER ROUNDUP FOR NEBRASKA
NATIONAL WEATHER SERVICE OMAHA NE
900 AM CDT FRI MAY 25 2018

NOTES: SATELLITE DATA IS BEING USED TO AUGMENT CLOUD COVER ABOVE
       12000 FEET.
       "FAIR" INDICATES FEW OR NO CLOUDS BELOW 12,000 FEET WITH NO
       SIGNIFICANT WEATHER AND/OR OBSTRUCTIONS TO VISIBILITY.


NEZ001>004-019>022-054>056-251500-
NEBRASKA PANHANDLE

CITY           SKY/WX    TMP DP  RH WIND       PRES   REMARKS
SCOTTSBLUFF    SUNNY     63  54  72 NW7       30.02S
ALLIANCE       SUNNY     66  56  70 W8        29.98F
CHADRON        SUNNY     67  55  65 W3        29.97R
GORDON         FAIR      69  56  63 W8        29.96S
KIMBALL        SUNNY     64  50  59 W8        30.08S
SIDNEY         SUNNY     67  51  56 W9        30.04S
$$

NEZ057>060-069>072-079>082-251500-
SOUTHWEST NEBRASKA

CITY           SKY/WX    TMP DP  RH WIND       PRES   REMARKS
NORTH PLATTE   SUNNY     70  57  63 W5        29.95F
IMPERIAL       SUNNY     69  51  52 W5        29.99S
LEXINGTON      SUNNY     70  56  60 W10       29.93F
MCCOOK         SUNNY     67  54  63 W7        29.95F
OGALLALA       SUNNY     67  56  68 W7        29.98F
$$

NEZ005>010-023>029-035>040-094-251500-
NORTH CENTRAL NEBRASKA

CITY           SKY/WX    TMP DP  RH WIND       PRES   REMARKS
VALENTINE      SUNNY     71  60  68 SW3       29.90S
AINSWORTH      SUNNY     73  62  68 SW7       29.90F
BROKEN BOW     SUNNY     73  53  49 W12       29.91F
O`NEILL        SUNNY     75  64  68 W9        29.88S
ORD            SUNNY     73  56  54 NW8       29.88F
THEDFORD       SUNNY     74  60  59 W9        29.93F
$$

NEZ041-046>049-061>064-073>077-083>087-251500-
SOUTH CENTRAL NEBRASKA

CITY           SKY/WX    TMP DP  RH WIND       PRES   REMARKS
GRAND ISLAND   SUNNY     73  55  53 W9        29.91S
AURORA         SUNNY     74  53  48 W14       29.90S
HASTINGS       SUNNY     71  55  56 W9        29.92S
HEBRON         SUNNY     76  58  52 W8G16     29.90S
HOLDREGE       SUNNY     73  54  52 W9        29.93R
KEARNEY        SUNNY     72  54  53 W9        29.91F
YORK           SUNNY     73  61  64 NW14      29.91R
$$

NEZ011>018-030>034-042>045-251500-
NORTHEAST NEBRASKA

CITY           SKY/WX    TMP DP  RH WIND       PRES   REMARKS
NORFOLK        SUNNY     76  63  64 W10       29.84S
ALBION         SUNNY     74  64  70 NW3       29.89S
BLAIR          PTSUNNY   71  64  78 S12       29.88S
COLUMBUS       SUNNY     77  60  55 W13       29.88S
FREMONT        SUNNY     74  65  74 S6        29.88R
TEKAMAH        CLOUDY    71  65  81 S12       29.85F
WAYNE          SUNNY     74  72  94 CALM      29.85S
$$

NEZ050>053-065>068-078-088>093-251500-
SOUTHEAST NEBRASKA

CITY           SKY/WX    TMP DP  RH WIND       PRES   REMARKS
LINCOLN        MOSUNNY   73  63  70 SW3       29.89S
OMAHA EPPLEY   PTSUNNY   73  64  73 S7        29.87S
BEATRICE       MOSUNNY   74  61  63 SW6       29.91R
FALLS CITY     CLOUDY    72  65  78 S10       29.90R
NEBRASKA CITY  CLOUDY    71  67  87 S9        29.90R
PLATTSMOUTH    CLOUDY    70  65  84 S8        29.89S
$$

NEZ044-045-051>053-067-251500-
OMAHA AREA

CITY           SKY/WX    TMP DP  RH WIND       PRES   REMARKS
OMAHA EPPLEY   PTSUNNY   73  64  73 S7        29.87S
BLAIR          PTSUNNY   71  64  78 S12       29.88S
FREMONT        SUNNY     74  65  74 S6        29.88R
MILLARD        MOSUNNY   74  66  76 SW3       29.88S
OFFUTT AFB     PTSUNNY   71  65  81 S5        29.87S
PLATTSMOUTH    CLOUDY    70  65  84 S8        29.89S
WAHOO          FAIR      76  61  59 SW8       29.88S
$$




USA.gov is the U.S. government's official web portal to all federal, state and local government web resources and services.